#timestamp,LO_Frequency,Hit,StdDev 
1597370415.4,286046997.4,N
1597370435.2,286046998.0,N
1597370455.1,286046995.2,Y
1597370456.0,286046995.2,P
1597370475.8,286046997.7,N
1597370495.6,286046997.6,N
1597370515.5,286046997.2,N
1597370535.3,286046995.3,Y
1597370555.2,286046999.2,P
1597370575.9,286046999.5,N
1597370595.7,286046999.1,N
1597370615.6,286046999.3,N
1597370635.4,286046998.8,N
1597370655.3,286046998.8,N
1597370675.1,286046999.1,N
1597370676.0,286046999.1,N
1597370695.8,286046998.7,N
1597370715.7,286046999.1,N
1597370735.5,286046998.7,N
1597370755.3,286046996.6,Y
1597370775.2,286047000.8,P
1597370795.0,286047000.7,N
1597370795.9,286047000.7,N
1597370815.8,286047000.7,N
1597370835.6,286046998.3,N
1597370855.4,286046998.2,N
1597370875.3,286046998.6,N
1597370925.1,286046996.8,E
1597370935.1,286047001.1,N
1597370936.0,286047001.1,P
1597370955.8,286046999.7,P
1597370975.6,286047000.1,N
1597370995.5,286047002.5,Y
1597371015.3,286046999.7,P
1597371035.2,286047001.8,P
1597371055.9,286047001.5,N
1597371075.7,286047001.9,N
1597371095.6,286047001.8,N
1597371115.4,286047002.3,N
1597371135.2,286047000.1,N
1597371155.1,286047002.8,Y
1597371156.0,286047002.8,P
1597371175.8,286047000.7,N
1597371195.7,286047001.1,N
1597371215.5,286046998.7,N
1597371235.3,286047000.3,N
1597371255.2,286046998.1,N
1597371275.0,286047000.2,N
1597371275.9,286047000.2,N
1597371295.7,286047001.1,N
1597371315.6,286047000.4,N
1597371335.4,286046999.9,N
1597371355.3,286047000.6,N
1597371375.1,286047000.5,N
1597371395.8,286047001.1,N
1597371415.7,286047000.7,N
1597371435.5,286047001.0,N
1597371455.4,286047000.2,N
1597371475.2,286047002.6,N
1597371495.0,286047000.4,N
1597371495.9,286047000.4,N
1597371515.8,286047002.2,N
1597371535.6,286047002.5,N
1597371555.4,286047002.2,N
1597371575.3,286047002.6,N
1597371595.1,286047002.6,N
1597371615.9,286047002.7,N
1597371635.7,286047001.6,N
1597371655.5,286047002.2,N
1597371675.4,286047001.7,N
1597371695.2,286047001.4,N
1597371715.0,286047001.8,N
1597371715.9,286047001.8,N
1597371735.8,286047004.2,Y
1597371755.6,286047002.1,P
1597371775.5,286047001.8,P
1597371795.3,286047001.5,P
1597371815.1,286047004.2,Y
1597371835.9,286047000.5,P
1597371855.7,286047002.7,P
1597371875.6,286047000.0,N
1597371895.4,286047000.4,N
1597371915.2,286046999.8,N
1597371935.1,286047000.1,N
1597371936.0,286047000.1,N
1597371955.8,286047000.9,N
1597371975.6,286047000.2,N
1597371995.5,286047001.0,N
1597372015.3,286047000.0,N
1597372035.2,286046999.8,N
1597372055.9,286047002.5,Y
1597372075.7,286047000.1,P
1597372095.6,286046999.7,N
1597372115.4,286047001.6,P
1597372135.2,286047001.5,N
1597372155.1,286047002.2,N
1597372156.0,286047002.2,N
1597372175.8,286047002.6,N
1597372195.7,286047002.6,N
1597372215.5,286047002.3,N
1597372235.3,286047002.4,N
1597372255.2,286047002.4,N
1597372275.0,286047002.7,N
1597372275.9,286047002.7,N
1597372295.7,286047002.4,N
1597372315.6,286047002.6,N
1597372335.4,286047002.2,N
1597372355.3,286047001.6,N
1597372375.1,286047001.4,N
1597372376.0,286047001.4,N
1597372395.8,286047001.3,N
1597372415.7,286046999.8,N
1597372435.5,286047002.8,N
1597372455.3,286047002.5,N
1597372475.2,286047002.6,N
1597372495.0,286047002.6,N
1597372495.9,286047002.6,N
1597372515.8,286047002.4,N
1597372535.6,286047002.5,N
1597372555.4,286047001.5,N
1597372575.3,286047004.4,Y
1597372595.1,286047000.2,P
1597372615.9,286047000.2,N
1597372635.7,286047000.4,N
1597372655.5,286047000.6,N
1597372675.4,286047000.7,N
1597372695.2,286047000.5,N
1597372715.0,286047000.3,N
1597372715.9,286047000.3,N
1597372735.8,286047000.8,N
1597372755.6,286047000.7,N
1597372775.5,286047001.0,N
1597372795.3,286047000.8,N
1597372815.1,286047001.0,N
1597372835.9,286047000.6,N
1597372855.7,286047000.1,N
1597372875.5,286047000.7,N
1597372895.4,286047000.8,N
1597372915.2,286047000.9,N
1597372935.1,286046998.5,Y
1597372936.0,286046998.5,P
1597372955.8,286046998.4,N
1597372975.6,286046998.3,N
1597372995.5,286046998.4,N
1597373015.3,286047001.2,N
1597373035.1,286046999.3,N
1597373055.9,286046998.2,N
1597373075.7,286046998.6,N
1597373095.6,286046998.7,N
1597373115.4,286046998.5,N
1597373135.2,286046998.9,N
1597373155.1,286046998.5,N
1597373156.0,286046998.5,N
1597373175.8,286046998.3,N
1597373195.6,286046998.4,N
1597373215.5,286046999.0,N
1597373235.3,286047001.2,N
1597373255.2,286047000.9,N
1597373275.9,286047000.3,N
1597373295.7,286047000.9,N
1597373315.6,286047000.8,N
1597373335.4,286047000.7,N
1597373355.2,286047001.0,N
1597373375.1,286047000.8,N
1597373376.0,286047000.8,N
1597373395.8,286046998.5,N
1597373415.7,286047000.0,N
1597373435.5,286047000.4,N
1597373455.3,286047000.7,N
1597373475.2,286047000.4,N
1597373495.0,286047000.6,N
1597373495.9,286047000.6,N
1597373515.8,286047000.7,N
1597373535.6,286047000.6,N
1597373555.4,286047000.6,N
1597373575.3,286047000.9,N
1597373595.1,286047000.9,N
1597373615.8,286047001.0,N
1597373635.7,286047000.3,N
1597373655.5,286047001.2,N
1597373675.3,286047000.7,N
1597373695.2,286047000.6,N
1597373715.0,286047000.5,N
1597373715.9,286047000.5,N
1597373735.8,286047000.0,N
1597373755.6,286047000.3,N
1597373775.4,286046999.7,N
1597373795.3,286047000.3,N
1597373815.1,286047000.6,N
1597373835.9,286047000.4,N
1597373855.7,286046999.9,N
1597373875.5,286047000.9,N
1597373895.4,286047002.8,Y
1597373915.2,286047000.9,P
1597373935.0,286047000.3,N
1597373935.9,286047000.3,N
1597373955.8,286047000.5,N
1597373975.6,286047002.4,Y
1597373995.5,286047000.6,P
